Location: Arboyeti
(42.1122°N, 44.6017°E)
Time: 20:32:40
(UTC+00:00)

Cosmos 1269 Rocket - Pass Details

Date: 19 April 2021
Orbit: 772 x 779 km, 74.1° (Epoch: 18 May)

Event Time Altitude Azimuth Distance (km) Brightness Sun altitude
Rises 16:11:44 0° 202° (SSW) 3,244 7.3 -5.1°
Reaches altitude 10° 16:14:06 10° 203° (SSW) 2,322 6.5 -5.5°
Maximum altitude 16:19:23 78° 290° (WNW) 801 4.3 -6.4°
Drops below altitude 10° 16:24:43 10° 17° (NNE) 2,340 6.6 -7.4°
Sets 16:27:07 0° 19° (NNE) 3,271 7.3 -7.8°
